Location: Helion Bumpstead
(52.0500°N, 0.4000°E)
Time: 20:31:19
(UTC+00:00)

NOSS 2-2 (C) - Pass Details

Date: 15 November 2025
Orbit: 381 x 1696 km, 63.3° (Epoch: 14 December)

Event Time Altitude Azimuth Distance (km) Brightness Sun altitude
Exits shadow 04:41:32 38° 17° (NNE) 808 4.2 -23.9°
Maximum altitude 04:42:01 40° 37° (NE) 798 4.3 -23.8°
Drops below altitude 10° 04:46:20 10° 108° (ESE) 2,090 7.3 -23.2°
Sets 04:49:11 0° 115° (ESE) 3,230 8.4 -22.7°
